User: anonymous   Login
Location: Freistadt
(48.5112°N, 14.5013°E)
Time: 00:23:06
(UTC+01:00)
Language:

CZ-4C DEB - Orbit

View from above orbital plane
View from above orbital plane
View from above satellite
View from above satellite

Ground track
Ground track

The orbit data is extracted from the following two-line orbital elements,

1 38293U 10059C   23337.43386801  .00000252  00000-0  11739-3 0  9994
2 38293  98.6894  49.4375 0012583 105.0936 255.1638 14.28924126675407
Epoch (UTC): 03 December 2023 10:24:46
Eccentricity: 0.0012583
inclination: 98.6894°
perigee height: 786 km
apogee height: 804 km
right ascension of ascending node: 49.4375°
argument of perigee: 105.0936°
revolutions per day: 14.28924126
mean anomaly at epoch: 255.1638°
orbit number at epoch: 67540

The dashed part of the orbit path shows where the satellite is in the earth's shadow,  

DLR